Topeka, KS

4:57 AM CST on December 10, 2019 (GMT -0600)
Billard Municipal

Weather History for KTOP - August, 2019

Change the Weather History Date:

Tuesday, August 13, 2019

  Actual Average Record
Temperature  
Mean Temperature 80 °F 78 °F  
Max Temperature 91 °F 89 °F 113 °F (1936)
Min Temperature 69 °F 67 °F 52 °F (1992)
Degree Days  
Heating Degree Days 0 0  
Month to date heating degree days 0 0  
Since 1 June heating degree days 0 8  
Since 1 July heating degree days 0 0  
Cooling Degree Days 15 13  
Month to date cooling degree days 177 178  
Year to date cooling degree days 1056 1020  
Since 1 June cooling degree days 944 894  
Growing Degree Days 32 (Base 50)    
Moisture  
Dew Point 70 °F    
Average Humidity 68    
Maximum Humidity 94    
Minimum Humidity 41    
Precipitation  
Precipitation 0.00 in 0.14 in 3.60 in (2005)
Month to date precipitation 2.89 1.75  
Year to date precipitation 31.75 24.08  
Snow  
Snow 0.00 in 0.00 in 0.00 in ()
Month to date snowfall 0.0 0.0  
Year to date snowfall 18.5 11.3  
Since 1 July snowfall 0.0 0.0  
Snow Depth 0.00 in    
Sea Level Pressure  
Sea Level Pressure 29.94 in    
Wind  
Wind Speed 5 mph (NNW)    
Max Wind Speed 15 mph    
Max Gust Speed 20 mph    
Visibility 10 miles    
Events      
T = Trace of Precipitation, MM = Missing Value Source: NWS Daily Summary

Daily Weather History Graph

Daily Weather History Graph

Search for Another Location

Airport or City:

Astronomy

Aug. 13, 2019 Rise Set
Actual Time 6:33 AM CDT 8:20 PM CDT
Civil Twilight 6:05 AM CDT 8:48 PM CDT
Nautical Twilight 5:30 AM CDT 9:23 PM CDT
Astronomical Twilight 4:52 AM CDT 10:00 PM CDT
Moon 7:34 PM CDT (8/13) 4:37 AM CDT (8/13)
Length of Visible Light 14h 43m
Length of Day
13h 46m
Waxing Gibbous, 97% of the Moon is Illuminated
Aug 13
Waxing Gibbous
Aug 15
Full
Aug 23
Last Quarter
Aug 30
New
Sep 5
First Quarter

Hourly Weather History & Observations

Time (CDT) Temp. Heat Index Dew Point Humidity Pressure Visibility Wind Dir Wind Speed Gust Speed Precip Events Conditions
12:53 AM 79.0 °F - 73.9 °F 84% 29.84 in 10.0 mi West 3.5 mph - N/A   Clear
1:53 AM 78.1 °F - 73.9 °F 87% 29.83 in 10.0 mi West 5.8 mph - N/A   Clear
2:53 AM 75.9 °F - 73.0 °F 91% 29.85 in 10.0 mi NW 3.5 mph - N/A   Clear
3:53 AM 75.0 °F - 72.0 °F 90% 29.88 in 10.0 mi NW 4.6 mph - N/A   Clear
4:53 AM 75.9 °F - 73.0 °F 91% 29.90 in 10.0 mi Calm Calm - N/A   Partly Cloudy
5:53 AM 75.0 °F - 72.0 °F 90% 29.91 in 10.0 mi Calm Calm - N/A   Clear
6:53 AM 73.9 °F - 72.0 °F 93% 29.93 in 10.0 mi NW 3.5 mph - N/A   Mostly Cloudy
7:53 AM 77.0 °F - 72.0 °F 84% 29.94 in 10.0 mi NW 5.8 mph - N/A   Partly Cloudy
8:53 AM 82.0 °F 86.7 °F 72.0 °F 71% 29.95 in 10.0 mi North 6.9 mph - N/A   Partly Cloudy
9:53 AM 84.0 °F 90.2 °F 73.0 °F 69% 29.96 in 10.0 mi NNE 4.6 mph - N/A   Clear
10:53 AM 86.0 °F 93.0 °F 73.0 °F 65% 29.96 in 10.0 mi North 6.9 mph - N/A   Clear
11:53 AM 87.1 °F 93.6 °F 72.0 °F 61% 29.97 in 10.0 mi NNW 5.8 mph - N/A   Clear
12:53 PM 89.1 °F 96.0 °F 72.0 °F 57% 29.97 in 10.0 mi NNE 8.1 mph - N/A   Partly Cloudy
1:53 PM 90.0 °F 96.9 °F 72.0 °F 55% 29.97 in 10.0 mi North 6.9 mph - N/A   Scattered Clouds
2:53 PM 90.0 °F 95.4 °F 70.0 °F 52% 29.98 in 10.0 mi NNW 12.7 mph - N/A   Partly Cloudy
3:53 PM 90.0 °F 92.8 °F 66.9 °F 46% 29.97 in 10.0 mi North 9.2 mph - N/A   Clear
4:53 PM 89.1 °F 89.3 °F 62.1 °F 40% 29.96 in 10.0 mi North 6.9 mph - N/A   Clear
5:53 PM 88.0 °F 89.3 °F 64.0 °F 45% 29.96 in 10.0 mi NNW 6.9 mph - N/A   Clear
6:53 PM 86.0 °F 87.6 °F 64.9 °F 49% 29.96 in 10.0 mi North 4.6 mph - N/A   Clear
7:53 PM 81.0 °F 83.0 °F 66.0 °F 60% 29.96 in 10.0 mi NNW 3.5 mph - N/A   Clear
8:53 PM 75.9 °F - 66.0 °F 71% 29.98 in 10.0 mi Calm Calm - N/A   Clear
9:53 PM 73.0 °F - 66.9 °F 81% 30.02 in 10.0 mi NW 3.5 mph - N/A   Clear
10:53 PM 73.0 °F - 66.0 °F 79% 30.02 in 10.0 mi Calm Calm - N/A   Clear
11:53 PM 73.0 °F - 66.0 °F 79% 30.03 in 10.0 mi Calm Calm - N/A   Clear